Weather Roundup
Issued by NWS

Home | Current Version | Previous Version | Text Only | Print | Product List | Glossary On
Versions: 1 2 3 4 5 6 7 8 9 10 11 12 13 14 15 16 17 18 19 20 21 22 23 24 25 26 27 28 29 30 31 32 33 34 35 36 37 38 39 40 41 42 43 44 45 46 47 48 49 50
726
NZUS93 KARX 180159
HRRWXR

CURRENT HOURLY OBSERVATIONS ACROSS
MUCH OF THE UPPER MISSISSIPPI VALLEY
NATIONAL WEATHER SERVICE LA CROSSE WI
800 PM CST FRI NOV 17 2017


...SOUTHEAST MINNESOTA...


CITY           SKY/WX    TMP DP  RH WIND       PRES   REMARKS
ROCHESTER      FOG       37  37 100 N5        29.60S VSB 1/4 WCI  33
ROCHESTER/MAYO CLOUDY    37  37 100 CALM      29.61R
WINONA         CLOUDY    36  36 100 CALM      29.62F FOG
AUSTIN         LGT RAIN  37  36  93 CALM      29.61R VSB 3/4
ALBERT LEA     LGT RAIN  37  37 100 CALM      29.61R VSB 3/4
DODGE CENTER   FOG       36  36 100 NW3       29.61S VSB 1/2
PRESTON        FOG       36  35  96 CALM      29.61R VSB 1/4
OWATONNA       FOG       37  37 100 N3        29.62S VSB 1/2
FARIBAULT      FOG       37  37 100 N5        29.63F VSB 1/4 WCI  34
$$

...ELSEWHERE IN MINNESOTA...


CITY           SKY/WX    TMP DP  RH WIND       PRES   REMARKS
MINNEAPOLIS    CLOUDY    38  37  97 VRB6      29.65S WCI  33
INTNL FALLS    CLEAR     25  18  74 NW6       29.68S WCI  18
DULUTH         CLOUDY    32  32 100 N6        29.62F FOG     WCI  26
RED WING       CLOUDY    37  36  93 N5        29.63S FOG     WCI  34
REDWOOD FALLS  CLOUDY    38  32  79 N6        29.67R WCI  33
MANKATO        CLOUDY    38  36  92 N10       29.65R FOG     WCI  31
WORTHINGTON    PTCLDY    37  33  85 N14       29.65R WCI  28
FAIRMONT       MOCLDY    40  38  93 N12       29.62F WCI  33
$$

...SOUTHWEST WISCONSIN...


CITY           SKY/WX    TMP DP  RH WIND       PRES   REMARKS
LA CROSSE      LGT RAIN  39  38  96 CALM      29.61S FOG
PRAIRIE DU CHI CLOUDY    38  37  97 CALM      29.61R FOG
BOSCOBEL       CLOUDY    39  37  92 CALM      29.62R FOG
LONE ROCK      CLOUDY    39  39 100 CALM      29.61F FOG
PLATTEVILLE    CLOUDY    40  40 100 CALM      29.60S
FORT MC COY    CLOUDY    35  35 100 CALM      29.63S FOG
CAMP DOUGLAS   CLOUDY    37  36  99 CALM      29.61S FOG
MAUSTON-NEW LI CLOUDY    37  37  99 CALM      29.61S FOG
VIROQUA        CLOUDY    36  36 100 CALM      29.59S
WIS DELLS      CLOUDY    37  36  97 CALM      29.60F FOG
$$

...ELSEWHERE IN WISCONSIN...


CITY           SKY/WX    TMP DP  RH WIND       PRES   REMARKS
MILWAUKEE      LGT RAIN  42  41  96 S10       29.61F FOG
MADISON        DRIZZLE   39  39 100 CALM      29.60F FOG
GREEN BAY      LGT RAIN  38  38 100 CALM      29.63F FOG
EAU CLAIRE     NOT AVBL
BLACK RVR FLS  DRIZZLE   37  37 100 CALM      29.61F
MEDFORD        CLOUDY    32  32 100 CALM      29.61F FOG
WAUSAU         LGT RAIN  34  34 100 CALM      29.61F FOG
WIS RAPIDS     CLOUDY    36  35  96 CALM      29.62F FOG
MARSHFIELD     LGT RAIN  34  33  96 CALM      29.60F FOG
RICE LAKE      FOG       34  34 100 CALM      29.66S VSB 1/4
$$

...NORTHEAST IOWA...


CITY           SKY/WX    TMP DP  RH WIND       PRES   REMARKS
WATERLOO       FOG       40  39  97 NE3       29.58S VSB 1
DUBUQUE        CLOUDY    40  39  97 CALM      29.58S FOG
DECORAH        CLOUDY    37  37 100 CALM      29.59R FOG
MASON CITY     LGT RAIN  39  38  96 N6        29.61S VSB 1/2 WCI  35
CHARLES CITY   FOG       39  39 100 CALM      29.60S VSB 1/2
OELWEIN        FOG       39  39 100 CALM      29.58S VSB 1/4
$$

...ELSEWHERE IN IOWA...


CITY           SKY/WX    TMP DP  RH WIND       PRES   REMARKS
DES MOINES     DRZL/FOG  50  49  96 N6        29.56R VSB 1/4
IOWA CITY      CLOUDY    46  44  93 CALM      29.58F FOG
FORT DODGE     FOG       44  44 100 N7        29.59R VSB 3/4
MARSHALLTOWN   FOG       43  43 100 CALM      29.57R VSB 1
CEDAR RAPIDS   CLOUDY    44  43  96 CALM      29.56S FOG
$$

...NORTHERN ILLINOIS...


CITY           SKY/WX    TMP DP  RH WIND       PRES   REMARKS
CHICAGO-OHARE  LGT RAIN  43  40  89 S12       29.62F FOG
CHICAGO-MIDWAY DRIZZLE   43  42  97 S13       29.63F FOG
MOLINE         CLOUDY    49  44  83 S6        29.57S HAZE
ROCKFORD       LGT RAIN  42  41  96 S12       29.62F FOG
PEORIA         LGT RAIN  48  47  96 S12       29.61F
$$

NOTE: "FAIR" INDICATES FEW OR NO CLOUDS BELOW 12,000 FEET WITH NO
SIGNIFICANT WEATHER AND/OR OBSTRUCTIONS TO VISIBILITY. WIND
SPEEDS ARE IN MILES-PER-HOUR.




USA.gov is the U.S. government's official web portal to all federal, state and local government web resources and services.